,,,PA_Meas_PMT16A,,PR_Meas_QMR101_102,,RH_Meas_QMH101,,SR_Meas_QMS101,,TA_Meas_QMH101,,GenWind,,GenWind,
date,time,status,PA,status,PR,status,RH,status,SR,status,TA,status,DirAvg,status,SpdAvg,
2010-11-05, 00:00:04,VALID,999.561,VALID,0,VALID,89.2818,VALID,0,VALID,23.6232,VALID,30,VALID,0.414453,
2010-11-05, 00:01:04,VALID,999.528,VALID,0,VALID,89.2971,VALID,0,VALID,23.6019,VALID,30,VALID,0.216016,
2010-11-05, 00:02:04,VALID,999.505,VALID,0,VALID,89.3047,VALID,0,VALID,23.5823,VALID,30,VALID,0,
2010-11-05, 00:03:04,VALID,999.487,VALID,0,VALID,89.2818,VALID,0,VALID,23.6036,VALID,30,VALID,0,
2010-11-05, 00:04:04,VALID,999.472,VALID,0,VALID,89.236,VALID,0,VALID,23.5823,VALID,30,VALID,0,
2010-11-05, 00:05:04,VALID,999.458,VALID,0,VALID,89.2513,VALID,0,VALID,23.5823,VALID,30,VALID,0,
2010-11-05, 00:06:04,VALID,999.437,VALID,0,VALID,89.2055,VALID,0,VALID,23.5841,VALID,30,VALID,0,
2010-11-05, 00:07:04,VALID,999.444,VALID,0,VALID,89.2437,VALID,0,VALID,23.5841,VALID,30,VALID,0,
2010-11-05, 00:08:04,VALID,999.426,VALID,0,VALID,89.2894,VALID,0,VALID,23.5628,VALID,30,VALID,0.107422,
2010-11-05, 00:09:04,VALID,999.42,VALID,0,VALID,89.236,VALID,0,VALID,23.5628,VALID,30,VALID,0.154687,
2010-11-05, 00:10:04,VALID,999.404,VALID,0,VALID,89.2132,VALID,0,VALID,23.5823,VALID,30,VALID,0.308984,
2010-11-05, 00:11:04,VALID,999.431,VALID,0,VALID,89.1368,VALID,0,VALID,23.6036,VALID,30,VALID,0.167187,
2010-11-05, 00:12:04,VALID,999.438,VALID,0,VALID,89.0606,VALID,0,VALID,23.6019,VALID,30,VALID,0.0839844,
2010-11-05, 00:13:04,VALID,999.441,VALID,0,VALID,88.9919,VALID,0,VALID,23.6036,VALID,30,VALID,0,
2010-11-05, 00:14:04,VALID,999.462,VALID,0,VALID,88.9995,VALID,0,VALID,23.5628,VALID,30,VALID,0.135547,
2010-11-05, 00:15:04,VALID,999.435,VALID,0,VALID,89.236,VALID,0,VALID,23.6036,VALID,30,VALID,0.273047,
2010-11-05, 00:16:04,VALID,999.43,VALID,0,VALID,89.4268,VALID,0,VALID,23.6036,VALID,30,VALID,0.293359,
2010-11-05, 00:17:04,VALID,999.427,VALID,0,VALID,89.6023,VALID,0,VALID,23.6036,VALID,30,VALID,0.543359,
2010-11-05, 00:18:04,VALID,999.398,VALID,0,VALID,89.7396,VALID,0,VALID,23.5646,VALID,30,VALID,0.457031,
2010-11-05, 00:19:04,VALID,999.41,VALID,0,VALID,89.9074,VALID,0,VALID,23.5256,VALID,30,VALID,0.289453,
2010-11-05, 00:20:04,VALID,999.38,VALID,0,VALID,90.0448,VALID,0,VALID,23.4848,VALID,30,VALID,0.163281,
2010-11-05, 00:21:04,VALID,999.377,VALID,0,VALID,90.1821,VALID,0,VALID,23.4866,VALID,30,VALID,0.096875,
2010-11-05, 00:22:04,VALID,999.354,VALID,0,VALID,90.3576,VALID,0,VALID,23.4671,VALID,30,VALID,0.119531,
2010-11-05, 00:23:04,VALID,999.36,VALID,0,VALID,90.4644,VALID,0,VALID,23.4263,VALID,30,VALID,0,
2010-11-05, 00:24:04,VALID,999.329,VALID,0,VALID,90.5483,VALID,0,VALID,23.428,VALID,30,VALID,0,
2010-11-05, 00:25:04,VALID,999.343,VALID,0,VALID,90.6246,VALID,0,VALID,23.4067,VALID,30,VALID,0,
2010-11-05, 00:26:04,VALID,999.353,VALID,0,VALID,90.7467,VALID,0,VALID,23.4085,VALID,30,VALID,0,
2010-11-05, 00:27:04,VALID,999.366,VALID,0,VALID,90.8764,VALID,0,VALID,23.3872,VALID,30,VALID,0.439453,
2010-11-05, 00:28:04,VALID,999.345,VALID,0,VALID,90.9756,VALID,0,VALID,23.3677,VALID,30,VALID,0.628516,
2010-11-05, 00:29:04,VALID,999.38,VALID,0,VALID,90.9298,VALID,0,VALID,23.3482,VALID,42,VALID,0.578906,
2010-11-05, 00:30:04,VALID,999.343,VALID,0,VALID,90.8993,VALID,0,VALID,23.3482,VALID,44,VALID,0.516016,
2010-11-05, 00:31:04,VALID,999.351,VALID,0,VALID,90.8993,VALID,0,VALID,23.3482,VALID,50,VALID,0.776172,
2010-11-05, 00:32:04,VALID,999.328,VALID,0,VALID,90.8993,VALID,0,VALID,23.35,VALID,50,VALID,0.804297,
2010-11-05, 00:33:04,VALID,999.35,VALID,0,VALID,90.884,VALID,0,VALID,23.3695,VALID,52,VALID,0.819922,
2010-11-05, 00:34:04,VALID,999.326,VALID,0,VALID,90.9374,VALID,0,VALID,23.35,VALID,56,VALID,0.630078,
2010-11-05, 00:35:04,VALID,999.299,VALID,0,VALID,91.0137,VALID,0,VALID,23.3305,VALID,57,VALID,0.521875,
2010-11-05, 00:36:04,VALID,999.316,VALID,0,VALID,91.0824,VALID,0,VALID,23.3305,VALID,57,VALID,0.423438,
2010-11-05, 00:37:04,VALID,999.275,VALID,0,VALID,91.2121,VALID,0,VALID,23.3287,VALID,57,VALID,0.460547,
2010-11-05, 00:38:04,VALID,999.248,VALID,0,VALID,91.3266,VALID,0,VALID,23.3287,VALID,57,VALID,0.465625,
2010-11-05, 00:39:04,VALID,999.241,VALID,0,VALID,91.4028,VALID,0,VALID,23.3287,VALID,57,VALID,0.515234,
2010-11-05, 00:40:04,VALID,999.234,VALID,0,VALID,91.4868,VALID,0,VALID,23.3305,VALID,57,VALID,0.413281,
2010-11-05, 00:41:04,VALID,999.194,VALID,0,VALID,91.5249,VALID,0,VALID,23.3287,VALID,57,VALID,0.461719,
2010-11-05, 00:42:04,VALID,999.187,VALID,0,VALID,91.5249,VALID,0,VALID,23.3305,VALID,33,VALID,0.775,
2010-11-05, 00:43:04,VALID,999.171,VALID,0,VALID,91.5631,VALID,0,VALID,23.2702,VALID,22,VALID,0.965234,
2010-11-05, 00:44:04,VALID,999.161,VALID,0,VALID,91.5326,VALID,0,VALID,23.2507,VALID,8,VALID,0.855859,
2010-11-05, 00:45:04,VALID,999.129,VALID,0,VALID,91.5554,VALID,0,VALID,23.2719,VALID,7,VALID,0.747656,
2010-11-05, 00:46:04,VALID,999.134,VALID,0,VALID,91.5783,VALID,0,VALID,23.2312,VALID,7,VALID,0.608594,
2010-11-05, 00:47:04,VALID,999.116,VALID,0,VALID,91.5707,VALID,0,VALID,23.2312,VALID,7,VALID,0.483594,
2010-11-05, 00:48:04,VALID,999.094,VALID,0,VALID,91.5707,VALID,0,VALID,23.2117,VALID,7,VALID,0.476563,
2010-11-05, 00:49:04,VALID,999.075,VALID,0,VALID,91.5707,VALID,0,VALID,23.2312,VALID,7,VALID,0.346094,
2010-11-05, 00:50:04,VALID,999.065,VALID,0,VALID,91.5707,VALID,0,VALID,23.2312,VALID,7,VALID,0.432422,
2010-11-05, 00:51:04,VALID,999.047,VALID,0,VALID,91.6012,VALID,0,VALID,23.2524,VALID,7,VALID,0.380859,
2010-11-05, 00:52:04,VALID,999.072,VALID,0,VALID,91.6012,VALID,0,VALID,23.2312,VALID,7,VALID,0.283984,
2010-11-05, 00:53:04,VALID,999.071,VALID,0,VALID,91.5936,VALID,0.112286,VALID,23.2117,VALID,7,VALID,0.169922,
2010-11-05, 00:54:04,VALID,999.048,VALID,0,VALID,91.6088,VALID,0,VALID,23.2347,VALID,7,VALID,0.266406,
2010-11-05, 00:55:04,VALID,999.044,VALID,0,VALID,91.6699,VALID,0,VALID,23.2134,VALID,7,VALID,0.219531,
2010-11-05, 00:56:04,VALID,999.067,VALID,0,VALID,91.6928,VALID,0,VALID,23.2152,VALID,7,VALID,0.286328,
2010-11-05, 00:57:04,VALID,999.035,VALID,0,VALID,91.708,VALID,0,VALID,23.2152,VALID,7,VALID,0.505859,
2010-11-05, 00:58:04,VALID,999.054,VALID,0,VALID,91.7691,VALID,0,VALID,23.2152,VALID,7,VALID,0.603516,
2010-11-05, 00:59:04,VALID,999.042,VALID,0,VALID,91.8072,VALID,0,VALID,23.2152,VALID,7,VALID,0.588281,
2010-11-05, 01:00:04,VALID,999.003,VALID,0,VALID,91.8683,VALID,0,VALID,23.2347,VALID,7,VALID,0.460547,
2010-11-05, 01:01:04,VALID,999.039,VALID,0,VALID,91.9217,VALID,0,VALID,23.2134,VALID,7,VALID,0.387109,
2010-11-05, 01:02:04,VALID,999.009,VALID,0,VALID,91.9445,VALID,0,VALID,23.2152,VALID,7,VALID,0.348047,
2010-11-05, 01:03:04,VALID,999.014,VALID,0,VALID,91.9598,VALID,0,VALID,23.2347,VALID,7,VALID,0.466406,
2010-11-05, 01:04:04,VALID,998.993,VALID,0,VALID,91.9751,VALID,0,VALID,23.2347,VALID,7,VALID,0.511719,
2010-11-05, 01:05:04,VALID,998.988,VALID,0,VALID,91.9751,VALID,0,VALID,23.2347,VALID,7,VALID,0.509375,
2010-11-05, 01:06:04,VALID,998.992,VALID,0,VALID,92.0209,VALID,0,VALID,23.2347,VALID,7,VALID,0.339453,
2010-11-05, 01:07:04,VALID,998.994,VALID,0,VALID,92.0437,VALID,0,VALID,23.2347,VALID,7,VALID,0.207422,
2010-11-05, 01:08:04,VALID,998.976,VALID,0,VALID,92.0361,VALID,0,VALID,23.2152,VALID,7,VALID,0.358203,
2010-11-05, 01:09:04,VALID,998.98,VALID,0,VALID,92.0666,VALID,0,VALID,23.2329,VALID,7,VALID,0.419922,
2010-11-05, 01:10:04,VALID,998.954,VALID,0,VALID,92.1048,VALID,0,VALID,23.2329,VALID,7,VALID,0.614062,
2010-11-05, 01:11:04,VALID,998.961,VALID,0,VALID,92.1582,VALID,0,VALID,23.2329,VALID,7,VALID,0.722656,
2010-11-05, 01:12:04,VALID,998.94,VALID,0,VALID,92.1658,VALID,0,VALID,23.2329,VALID,7,VALID,0.608594,
2010-11-05, 01:13:04,VALID,998.959,VALID,0,VALID,92.1124,VALID,0,VALID,23.2524,VALID,7,VALID,0.467969,
2010-11-05, 01:14:04,VALID,998.935,VALID,0,VALID,92.0437,VALID,0,VALID,23.2329,VALID,7,VALID,0.147656,
2010-11-05, 01:15:04,VALID,998.945,VALID,0,VALID,92.0056,VALID,0,VALID,23.2329,VALID,7,VALID,0.0601562,
2010-11-05, 01:16:04,VALID,998.942,VALID,0,VALID,91.9903,VALID,0,VALID,23.2329,VALID,7,VALID,0.0542969,
2010-11-05, 01:17:04,VALID,998.941,VALID,0,VALID,91.9369,VALID,0,VALID,23.2329,VALID,7,VALID,0,
2010-11-05, 01:18:04,VALID,998.901,VALID,0,VALID,91.9064,VALID,0,VALID,23.2134,VALID,7,VALID,0,
2010-11-05, 01:19:04,VALID,998.923,VALID,0,VALID,91.8759,VALID,0,VALID,23.1939,VALID,7,VALID,0,
2010-11-05, 01:20:04,VALID,998.891,VALID,0,VALID,91.853,VALID,0,VALID,23.1744,VALID,7,VALID,0,
2010-11-05, 01:21:04,VALID,998.889,VALID,0,VALID,91.8301,VALID,0,VALID,23.1726,VALID,7,VALID,0,
2010-11-05, 01:22:04,VALID,998.897,VALID,0,VALID,91.8911,VALID,0,VALID,23.1531,VALID,7,VALID,0.139062,
2010-11-05, 01:23:04,VALID,998.863,VALID,0,VALID,91.9751,VALID,0,VALID,23.1921,VALID,7,VALID,0.339453,
2010-11-05, 01:24:04,VALID,998.827,VALID,0,VALID,92.0743,VALID,0,VALID,23.2329,VALID,106,VALID,0.589844,
2010-11-05, 01:25:04,VALID,998.841,VALID,0,VALID,92.0743,VALID,0,VALID,23.2524,VALID,107,VALID,0.659766,
2010-11-05, 01:26:04,VALID,998.796,VALID,0,VALID,92.0743,VALID,0,VALID,23.2507,VALID,107,VALID,0.464453,
2010-11-05, 01:27:04,VALID,998.785,VALID,0,VALID,92.0361,VALID,0,VALID,23.2719,VALID,107,VALID,0.426172,
2010-11-05, 01:28:04,VALID,998.79,VALID,0,VALID,91.998,VALID,0,VALID,23.2915,VALID,107,VALID,0.500391,
2010-11-05, 01:29:04,VALID,998.772,VALID,0,VALID,91.9903,VALID,0,VALID,23.2915,VALID,107,VALID,0.4,
2010-11-05, 01:30:04,VALID,998.746,VALID,0,VALID,91.9827,VALID,0,VALID,23.311,VALID,107,VALID,0.451562,
2010-11-05, 01:31:04,VALID,998.768,VALID,0,VALID,91.9827,VALID,0,VALID,23.3305,VALID,107,VALID,0.570313,
2010-11-05, 01:32:05,VALID,998.734,VALID,0,VALID,91.9903,VALID,0,VALID,23.3305,VALID,105,VALID,0.58125,
2010-11-05, 01:33:05,VALID,998.735,VALID,0,VALID,91.9751,VALID,0,VALID,23.35,VALID,96,VALID,0.614453,
2010-11-05, 01:34:05,VALID,998.698,VALID,0,VALID,92.0132,VALID,0,VALID,23.35,VALID,96,VALID,0.744141,
2010-11-05, 01:35:05,VALID,998.678,VALID,0,VALID,92.0285,VALID,0,VALID,23.3695,VALID,96,VALID,0.699609,
2010-11-05, 01:36:05,VALID,998.681,VALID,0,VALID,92.0666,VALID,0,VALID,23.3695,VALID,96,VALID,0.485156,
2010-11-05, 01:37:05,VALID,998.649,VALID,0,VALID,92.0361,VALID,0,VALID,23.3677,VALID,96,VALID,0.416016,
2010-11-05, 01:38:05,VALID,998.638,VALID,0,VALID,92.0209,VALID,0,VALID,23.389,VALID,96,VALID,0.330078,
2010-11-05, 01:39:05,VALID,998.607,VALID,0,VALID,91.9903,VALID,0,VALID,23.3695,VALID,96,VALID,0.429688,
2010-11-05, 01:40:05,VALID,998.653,VALID,0,VALID,91.9827,VALID,0,VALID,23.3695,VALID,96,VALID,0.346094,
2010-11-05, 01:41:05,VALID,998.643,VALID,0,VALID,91.9598,VALID,0,VALID,23.35,VALID,96,VALID,0.286719,
2010-11-05, 01:42:05,VALID,998.633,VALID,0,VALID,91.9674,VALID,0,VALID,23.35,VALID,96,VALID,0.345313,
2010-11-05, 01:43:05,VALID,998.662,VALID,0,VALID,91.9522,VALID,0,VALID,23.3305,VALID,96,VALID,0.416016,
2010-11-05, 01:44:05,VALID,998.671,VALID,0,VALID,92.0285,VALID,0,VALID,23.311,VALID,96,VALID,0.463672,
2010-11-05, 01:45:05,VALID,998.68,VALID,0,VALID,92.0361,VALID,0,VALID,23.311,VALID,96,VALID,0.578125,
2010-11-05, 01:46:05,VALID,998.669,VALID,0,VALID,92.0743,VALID,0,VALID,23.2719,VALID,96,VALID,0.53125,
2010-11-05, 01:47:05,VALID,998.676,VALID,0,VALID,92.0743,VALID,0,VALID,23.2719,VALID,96,VALID,0.434375,
2010-11-05, 01:48:05,VALID,998.674,VALID,0,VALID,92.0666,VALID,0,VALID,23.2524,VALID,96,VALID,0.46875,
2010-11-05, 01:49:05,VALID,998.692,VALID,0,VALID,92.0819,VALID,0,VALID,23.2524,VALID,96,VALID,0.540234,
2010-11-05, 01:50:05,VALID,998.678,VALID,0,VALID,92.0895,VALID,0,VALID,23.2524,VALID,96,VALID,0.721094,
2010-11-05, 01:51:05,VALID,998.651,VALID,0,VALID,92.1429,VALID,0,VALID,23.2524,VALID,96,VALID,0.844531,
2010-11-05, 01:52:05,VALID,998.644,VALID,0,VALID,92.1734,VALID,0,VALID,23.2524,VALID,88,VALID,0.959766,
2010-11-05, 01:53:05,VALID,998.615,VALID,0,VALID,92.204,VALID,0,VALID,23.2719,VALID,88,VALID,1.03125,
2010-11-05, 01:54:05,VALID,998.648,VALID,0,VALID,92.2268,VALID,0,VALID,23.2915,VALID,78,VALID,0.979688,
2010-11-05, 01:55:05,VALID,998.643,VALID,0,VALID,92.1734,VALID,0,VALID,23.2719,VALID,71,VALID,0.550391,
2010-11-05, 01:56:05,VALID,998.62,VALID,0,VALID,92.1353,VALID,0,VALID,23.2312,VALID,70,VALID,0.321875,
2010-11-05, 01:57:05,VALID,998.639,VALID,0,VALID,92.12,VALID,0,VALID,23.2524,VALID,320,VALID,0.639453,
2010-11-05, 01:58:05,VALID,998.606,VALID,0,VALID,92.0971,VALID,0,VALID,23.2719,VALID,308,VALID,0.854297,
2010-11-05, 01:59:05,VALID,998.62,VALID,0,VALID,92.0743,VALID,0,VALID,23.2524,VALID,307,VALID,0.741016,
2010-11-05, 02:00:05,VALID,998.632,VALID,0,VALID,92.1124,VALID,0,VALID,23.2329,VALID,307,VALID,0.646875,
2010-11-05, 02:01:05,VALID,998.59,VALID,0,VALID,92.1429,VALID,0,VALID,23.2329,VALID,307,VALID,0.247266,
2010-11-05, 02:02:05,VALID,998.579,VALID,0,VALID,92.1734,VALID,0,VALID,23.2134,VALID,307,VALID,0.222266,
2010-11-05, 02:03:05,VALID,998.59,VALID,0,VALID,92.1887,VALID,0,VALID,23.1921,VALID,62,VALID,0.710547,
2010-11-05, 02:04:05,VALID,998.62,VALID,0,VALID,92.2268,VALID,0,VALID,23.1939,VALID,62,VALID,0.756641,
2010-11-05, 02:05:05,VALID,998.577,VALID,0,VALID,92.265,VALID,0,VALID,23.1939,VALID,81,VALID,0.629687,
2010-11-05, 02:06:05,VALID,998.605,VALID,0,VALID,92.265,VALID,0,VALID,23.1744,VALID,82,VALID,0.100391,
2010-11-05, 02:07:05,VALID,998.607,VALID,0,VALID,92.2497,VALID,0,VALID,23.1531,VALID,82,VALID,0.369141,
2010-11-05, 02:08:05,VALID,998.587,VALID,0,VALID,92.2574,VALID,0,VALID,23.1549,VALID,292,VALID,0.405078,
2010-11-05, 02:09:05,VALID,998.62,VALID,0,VALID,92.3031,VALID,0,VALID,23.1531,VALID,292,VALID,0.528906,
2010-11-05, 02:10:05,VALID,998.579,VALID,0,VALID,92.3642,VALID,0,VALID,23.1744,VALID,292,VALID,0.400391,
2010-11-05, 02:11:05,VALID,998.599,VALID,0,VALID,92.3566,VALID,0,VALID,23.1726,VALID,292,VALID,0.145703,
2010-11-05, 02:12:05,VALID,998.62,VALID,0,VALID,92.41,VALID,0,VALID,23.1726,VALID,301,VALID,0.554297,
2010-11-05, 02:13:05,VALID,998.642,VALID,0,VALID,92.4328,VALID,0,VALID,23.1921,VALID,82,VALID,0.730859,
2010-11-05, 02:14:05,VALID,998.638,VALID,0,VALID,92.4023,VALID,0,VALID,23.2117,VALID,95,VALID,0.870313,
2010-11-05, 02:15:05,VALID,998.657,VALID,0,VALID,92.3413,VALID,0,VALID,23.2915,VALID,95,VALID,1.04258,
2010-11-05, 02:16:05,VALID,998.704,VALID,0,VALID,92.2268,VALID,0,VALID,23.3092,VALID,99,VALID,0.979297,
2010-11-05, 02:17:05,VALID,998.688,VALID,0,VALID,92.0666,VALID,0,VALID,23.35,VALID,99,VALID,0.597656,
2010-11-05, 02:18:05,VALID,998.75,VALID,0,VALID,91.9445,VALID,0,VALID,23.35,VALID,99,VALID,0.558203,
2010-11-05, 02:19:05,VALID,998.738,VALID,0,VALID,91.8377,VALID,0,VALID,23.3287,VALID,99,VALID,0.188281,
2010-11-05, 02:20:05,VALID,998.752,VALID,0,VALID,91.7233,VALID,0,VALID,23.35,VALID,99,VALID,0.262109,
2010-11-05, 02:21:05,VALID,998.773,VALID,0,VALID,91.6394,VALID,0,VALID,23.35,VALID,99,VALID,0.117188,
2010-11-05, 02:22:05,VALID,998.765,VALID,0,VALID,91.5936,VALID,0,VALID,23.35,VALID,99,VALID,0,
2010-11-05, 02:23:05,VALID,998.743,VALID,0,VALID,91.5783,VALID,0,VALID,23.3092,VALID,99,VALID,0,
2010-11-05, 02:24:05,VALID,998.74,VALID,0,VALID,91.5326,VALID,0,VALID,23.3305,VALID,99,VALID,0,
2010-11-05, 02:25:05,VALID,998.741,VALID,0,VALID,91.5554,VALID,0,VALID,23.3092,VALID,99,VALID,0.252344,
2010-11-05, 02:26:05,VALID,998.743,VALID,0,VALID,91.5707,VALID,0,VALID,23.2897,VALID,99,VALID,0.140234,
2010-11-05, 02:27:05,VALID,998.733,VALID,0,VALID,91.6012,VALID,0,VALID,23.311,VALID,99,VALID,0.239063,
2010-11-05, 02:28:05,VALID,998.754,VALID,0,VALID,91.6241,VALID,0,VALID,23.311,VALID,99,VALID,0.545703,
2010-11-05, 02:29:05,VALID,998.725,VALID,0,VALID,91.6851,VALID,0,VALID,23.2897,VALID,53,VALID,0.793359,
2010-11-05, 02:30:05,VALID,998.717,VALID,0,VALID,91.6623,VALID,0,VALID,23.2897,VALID,49,VALID,0.673437,
2010-11-05, 02:31:05,VALID,998.698,VALID,0,VALID,91.6928,VALID,0,VALID,23.311,VALID,49,VALID,0.405469,
2010-11-05, 02:32:05,VALID,998.689,VALID,0,VALID,91.708,VALID,0,VALID,23.2915,VALID,49,VALID,0.151172,
2010-11-05, 02:33:05,VALID,998.657,VALID,0,VALID,91.6775,VALID,0,VALID,23.2915,VALID,49,VALID,0.293359,
2010-11-05, 02:34:05,VALID,998.667,VALID,0,VALID,91.708,VALID,0,VALID,23.311,VALID,30,VALID,0.582031,
2010-11-05, 02:35:05,VALID,998.659,VALID,0,VALID,91.7233,VALID,0,VALID,23.3305,VALID,327,VALID,0.624609,
2010-11-05, 02:36:05,VALID,998.652,VALID,0,VALID,91.7385,VALID,0,VALID,23.3305,VALID,327,VALID,0.326172,
2010-11-05, 02:37:05,VALID,998.634,VALID,0,VALID,91.7538,VALID,0,VALID,23.3092,VALID,327,VALID,0.0132813,
2010-11-05, 02:38:05,VALID,998.599,VALID,0,VALID,91.7691,VALID,0,VALID,23.3092,VALID,327,VALID,0.130469,
2010-11-05, 02:39:05,VALID,998.559,VALID,0,VALID,91.7767,VALID,0,VALID,23.3305,VALID,327,VALID,0.257422,
2010-11-05, 02:40:05,VALID,998.608,VALID,0,VALID,91.8072,VALID,0,VALID,23.3305,VALID,327,VALID,0.333594,
2010-11-05, 02:41:05,VALID,998.574,VALID,0,VALID,91.8072,VALID,0,VALID,23.311,VALID,327,VALID,0.326953,
2010-11-05, 02:42:05,VALID,998.58,VALID,0,VALID,91.7996,VALID,0,VALID,23.311,VALID,327,VALID,0.161328,
2010-11-05, 02:43:05,VALID,998.578,VALID,0,VALID,91.8148,VALID,0,VALID,23.311,VALID,327,VALID,0.418359,
2010-11-05, 02:44:05,VALID,998.561,VALID,0,VALID,91.8148,VALID,0,VALID,23.2915,VALID,327,VALID,0.56875,
2010-11-05, 02:45:05,VALID,998.555,VALID,0,VALID,91.8454,VALID,0,VALID,23.2915,VALID,342,VALID,0.628125,
2010-11-05, 02:46:05,VALID,998.544,VALID,0,VALID,91.8759,VALID,0,VALID,23.311,VALID,342,VALID,0.446484,
2010-11-05, 02:47:05,VALID,998.546,VALID,0,VALID,91.8759,VALID,0,VALID,23.2915,VALID,342,VALID,0.338672,
2010-11-05, 02:48:05,VALID,998.542,VALID,0,VALID,91.8911,VALID,0,VALID,23.3305,VALID,342,VALID,0.224219,
2010-11-05, 02:49:05,VALID,998.543,VALID,0,VALID,91.8835,VALID,0,VALID,23.3305,VALID,342,VALID,0.213672,
2010-11-05, 02:50:05,VALID,998.54,VALID,0,VALID,91.8759,VALID,0,VALID,23.3092,VALID,342,VALID,0.151562,
2010-11-05, 02:51:05,VALID,998.522,VALID,0,VALID,91.8988,VALID,0,VALID,23.3305,VALID,342,VALID,0.00429688,
2010-11-05, 02:52:05,VALID,998.557,VALID,0,VALID,91.8988,VALID,0,VALID,23.3305,VALID,342,VALID,0.271875,
2010-11-05, 02:53:05,VALID,998.541,VALID,0,VALID,91.914,VALID,0,VALID,23.3305,VALID,342,VALID,0.414844,
2010-11-05, 02:54:05,VALID,998.543,VALID,0,VALID,91.914,VALID,0,VALID,23.3305,VALID,57,VALID,0.715625,
2010-11-05, 02:55:05,VALID,998.529,VALID,0,VALID,91.9217,VALID,0,VALID,23.3305,VALID,88,VALID,0.796875,
2010-11-05, 02:56:05,VALID,998.491,VALID,0,VALID,91.914,VALID,0,VALID,23.35,VALID,99,VALID,0.748828,
2010-11-05, 02:57:05,VALID,998.501,VALID,0,VALID,91.8988,VALID,0,VALID,23.3305,VALID,103,VALID,0.757031,
2010-11-05, 02:58:05,VALID,998.49,VALID,0,VALID,91.8988,VALID,0,VALID,23.35,VALID,115,VALID,0.799219,
2010-11-05, 02:59:05,VALID,998.48,VALID,0,VALID,91.8835,VALID,0,VALID,23.35,VALID,119,VALID,0.690625,
2010-11-05, 03:00:05,VALID,998.467,VALID,0,VALID,91.8148,VALID,0,VALID,23.3695,VALID,128,VALID,0.985156,
2010-11-05, 03:01:05,VALID,998.445,VALID,0,VALID,91.7614,VALID,0,VALID,23.389,VALID,138,VALID,1.06875,
2010-11-05, 03:02:05,VALID,998.459,VALID,0,VALID,91.6699,VALID,0,VALID,23.428,VALID,139,VALID,0.958594,
2010-11-05, 03:03:05,VALID,998.426,VALID,0,VALID,91.5783,VALID,0,VALID,23.4475,VALID,139,VALID,0.735156,
2010-11-05, 03:04:05,VALID,998.431,VALID,0,VALID,91.441,VALID,0,VALID,23.4671,VALID,139,VALID,0.707031,
2010-11-05, 03:05:05,VALID,998.432,VALID,0,VALID,91.3647,VALID,0,VALID,23.4866,VALID,139,VALID,0.71875,
2010-11-05, 03:06:05,VALID,998.447,VALID,0,VALID,91.2426,VALID,0,VALID,23.5061,VALID,139,VALID,0.658984,
2010-11-05, 03:07:05,VALID,998.422,VALID,0,VALID,91.1282,VALID,0,VALID,23.5256,VALID,167,VALID,0.499219,
2010-11-05, 03:08:05,VALID,998.432,VALID,0,VALID,91.0366,VALID,0,VALID,23.5043,VALID,167,VALID,0.5,
2010-11-05, 03:09:05,VALID,998.427,VALID,0,VALID,91.0061,VALID,0,VALID,23.5256,VALID,167,VALID,0.337109,
2010-11-05, 03:10:05,VALID,998.432,VALID,0,VALID,90.9603,VALID,0,VALID,23.5256,VALID,163,VALID,0.557813,
2010-11-05, 03:11:05,VALID,998.437,VALID,0,VALID,90.9451,VALID,0,VALID,23.5238,VALID,141,VALID,0.552344,
2010-11-05, 03:12:05,VALID,998.412,VALID,0,VALID,90.8993,VALID,0,VALID,23.5451,VALID,141,VALID,0.584766,
2010-11-05, 03:13:05,VALID,998.409,VALID,0,VALID,90.8535,VALID,0,VALID,23.5451,VALID,141,VALID,0.608594,
2010-11-05, 03:14:05,VALID,998.389,VALID,0,VALID,90.7849,VALID,0,VALID,23.5646,VALID,141,VALID,0.518359,
2010-11-05, 03:15:05,VALID,998.363,VALID,0,VALID,90.762,VALID,0,VALID,23.5646,VALID,141,VALID,0.428516,
2010-11-05, 03:16:05,VALID,998.34,VALID,0,VALID,90.6933,VALID,0,VALID,23.5646,VALID,141,VALID,0.396875,
2010-11-05, 03:17:05,VALID,998.339,VALID,0,VALID,90.6399,VALID,0,VALID,23.5841,VALID,141,VALID,0.310156,
2010-11-05, 03:18:05,VALID,998.341,VALID,0,VALID,90.5865,VALID,0,VALID,23.5433,VALID,141,VALID,0.188281,
2010-11-05, 03:19:05,VALID,998.32,VALID,0,VALID,90.556,VALID,0,VALID,23.5646,VALID,141,VALID,0.189453,
2010-11-05, 03:20:05,VALID,998.311,VALID,0,VALID,90.5331,VALID,0,VALID,23.5628,VALID,140,VALID,0.186719,
2010-11-05, 03:21:05,VALID,998.299,VALID,0,VALID,90.3805,VALID,0,VALID,23.5646,VALID,135,VALID,0.397266,
2010-11-05, 03:22:05,VALID,998.307,VALID,0,VALID,90.3271,VALID,0,VALID,23.5841,VALID,135,VALID,0.169141,
2010-11-05, 03:23:05,VALID,998.295,VALID,0,VALID,90.2203,VALID,0,VALID,23.5841,VALID,135,VALID,0.532422,
2010-11-05, 03:24:05,VALID,998.294,VALID,0,VALID,90.0753,VALID,0,VALID,23.6232,VALID,123,VALID,0.521875,
2010-11-05, 03:25:05,VALID,998.317,VALID,0,VALID,89.9456,VALID,0,VALID,23.6427,VALID,123,VALID,0.571875,
2010-11-05, 03:26:05,VALID,998.29,VALID,0,VALID,89.8311,VALID,0,VALID,23.6622,VALID,123,VALID,0.679297,
2010-11-05, 03:27:05,VALID,998.264,VALID,0,VALID,89.8464,VALID,0,VALID,23.6409,VALID,123,VALID,0.598047,
2010-11-05, 03:28:05,VALID,998.263,VALID,0,VALID,89.8617,VALID,0,VALID,23.6817,VALID,115,VALID,0.622656,
2010-11-05, 03:29:05,VALID,998.257,VALID,0,VALID,89.8769,VALID,0,VALID,23.6817,VALID,115,VALID,0.798047,
2010-11-05, 03:30:05,VALID,998.287,VALID,0,VALID,89.9837,VALID,0,VALID,23.6817,VALID,115,VALID,0.660937,
2010-11-05, 03:31:05,VALID,998.255,VALID,0,VALID,90.1134,VALID,0,VALID,23.6622,VALID,115,VALID,0.680859,
2010-11-05, 03:32:05,VALID,998.251,VALID,0,VALID,90.1363,VALID,0,VALID,23.6622,VALID,103,VALID,0.708203,
2010-11-05, 03:33:05,VALID,998.246,VALID,0,VALID,90.1974,VALID,0,VALID,23.6427,VALID,103,VALID,0.703125,
2010-11-05, 03:34:05,VALID,998.219,VALID,0,VALID,90.2889,VALID,0,VALID,23.6427,VALID,103,VALID,0.683984,
2010-11-05, 03:35:05,VALID,998.236,VALID,0,VALID,90.4034,VALID,0,VALID,23.6427,VALID,103,VALID,0.682813,
2010-11-05, 03:36:05,VALID,998.222,VALID,0,VALID,90.3881,VALID,0,VALID,23.6232,VALID,114,VALID,0.705078,
2010-11-05, 03:37:05,VALID,998.232,VALID,0,VALID,90.4339,VALID,0,VALID,23.6019,VALID,122,VALID,0.433594,
2010-11-05, 03:38:05,VALID,998.27,VALID,0,VALID,90.4568,VALID,0,VALID,23.6036,VALID,122,VALID,0.621484,
2010-11-05, 03:39:05,VALID,998.272,VALID,0,VALID,90.5026,VALID,0,VALID,23.5841,VALID,122,VALID,0.660937,
2010-11-05, 03:40:05,VALID,998.231,VALID,0,VALID,90.5865,VALID,0,VALID,23.6036,VALID,122,VALID,0.706641,
2010-11-05, 03:41:05,VALID,998.281,VALID,0,VALID,90.6246,VALID,0,VALID,23.5823,VALID,122,VALID,0.605078,
2010-11-05, 03:42:05,VALID,998.291,VALID,0,VALID,90.6246,VALID,0,VALID,23.5841,VALID,122,VALID,0.711328,
2010-11-05, 03:43:05,VALID,998.291,VALID,0,VALID,90.7314,VALID,0,VALID,23.5628,VALID,122,VALID,0.304297,
2010-11-05, 03:44:05,VALID,998.304,VALID,0,VALID,90.7849,VALID,0,VALID,23.5841,VALID,122,VALID,0.514063,
2010-11-05, 03:45:05,VALID,998.325,VALID,0,VALID,90.8001,VALID,0,VALID,23.5646,VALID,122,VALID,0.505859,
2010-11-05, 03:46:05,VALID,998.331,VALID,0,VALID,90.8459,VALID,0,VALID,23.5433,VALID,122,VALID,0.189063,
2010-11-05, 03:47:05,VALID,998.333,VALID,0,VALID,90.9451,VALID,0,VALID,23.5841,VALID,122,VALID,0.135547,